Terug naar catalogus

SL-14 R/B

ActiefPO
NORAD 22237·ROCKET BODY·🇷🇺 Russia

Gelanceerd Nov 24, 1992 vanaf Plesetsk Cosmodrome

Loading…

Volgende Passages (komende 24 uur)

TLE

VersSource: Space-Track

Epoch: Sep 14, 2026, 14:28 UTC

1 22237U 92080B   26257.60339454  .00000276  00000-0  33048-4 0  9998
2 22237  82.5114 213.9178 0017902 318.5462  41.4392 14.80419330822387

Volg SL-14 R/B in realtime met AllMySat

Download on the App Store